Home   Weather   Washington DC   Past weeks

Flag for USA Past Weather in Washington DC, USA — Yesterday and Last 2 Weeks

Now
63 °F

Low clouds.


Feels Like: 63 °F
Forecast: 62 / 66 °F
Wind: 14 mph from Northeast

Location: Reagan National Airport

Current Time: Sep 30, 2016 at 11:17:25 AM

Latest Report: Sep 30, 2016 at 9:52 AM


Visibility: 8 mi

Pressure: 30.17 "Hg

Humidity: 93%

Dew Point: 61 °F

Location of Washington DCLocation

Past Weather in Washington DC — Graph

°F

Washington DC Temperature Yesterday

Maximum temperature yesterday: 70 °F (at 12:52 AM)
Minimum temperature yesterday: 65 °F (at 11:52 PM)
Average temperature yesterday: 68 °F

High & Low Weather Summary for the Past Weeks

 TemperatureHumidityPressure
High88 °F (Sep 18, 1:52 PM)100% (Sep 27, 3:52 AM)30.29 "Hg (Sep 27, 3:52 AM)
Low59 °F (Sep 25, 6:52 AM)37% (Sep 25, 2:52 PM)29.89 "Hg (Sep 27, 4:52 PM)
Average72 °F77%30.10 "Hg
* Reported Sep 15 9:52 AM — Sep 30 9:52 AM, Washington DC, Weather by CustomWeather, © 2016

Note: Actual official high and low records may vary slightly from our data, if they occured in-between our weather recording intervals... More about our weather records

Advertising

Washington DC Weather History for the Previous 24 Hours

Scroll right to see more
 ConditionsComfort  
Time TempWeatherWind HumidityBarometerVisibility
9:52 AM
Fri, Sep 30
63 °FLow clouds.14 mph93%30.17 "Hg8 mi
9:01 AM62 °FFog.15 mph96%30.16 "Hg6 mi
7:52 AM62 °FDrizzle. Low clouds.15 mph96%30.16 "Hg10 mi
6:52 AM62 °FDrizzle. Low clouds.17 mph96%30.14 "Hg10 mi
5:52 AM62 °FOvercast.15 mph96%30.14 "Hg10 mi
4:52 AM64 °FOvercast.16 mph94%30.12 "Hg10 mi
3:52 AM64 °FOvercast.17 mph97%30.12 "Hg10 mi
2:52 AM64 °FOvercast.16 mph97%30.12 "Hg10 mi
1:52 AM64 °FRain. Overcast.13 mph97%30.14 "Hg7 mi
12:52 AM65 °FLight rain. Mostly cloudy.17 mph97%30.14 "Hg10 mi
11:52 PM
Thu, Sep 29
65 °FLight rain. Overcast.14 mph97%30.16 "Hg9 mi
10:52 PM66 °FOvercast.14 mph93%30.16 "Hg10 mi
9:52 PM66 °FLight rain. Overcast.16 mph96%30.17 "Hg10 mi
8:52 PM66 °FDrizzle. Fog.16 mph96%30.16 "Hg4 mi
7:52 PM67 °FDrizzle. Fog.20 mph93%30.15 "Hg5 mi
6:52 PM68 °FOvercast.13 mph93%30.15 "Hg10 mi
5:52 PM68 °FOvercast.14 mph93%30.15 "Hg10 mi
4:52 PM69 °FOvercast.13 mph93%30.14 "Hg10 mi
3:52 PM69 °FDrizzle. Overcast.13 mph93%30.14 "Hg7 mi
2:52 PM70 °FDrizzle. Fog.15 mph93%30.13 "Hg5 mi
1:52 PM70 °FFog.14 mph97%30.14 "Hg3 mi
12:52 PM70 °FMostly cloudy.20 mph93%30.15 "Hg8 mi
11:52 AM70 °FFog.18 mph93%30.14 "Hg5 mi
Weather by CustomWeather, © 2016

See weather overviewHow to use our weather pages